RH
81 84 86 88 87 86 90 93 91 85 86 83 84 85 81 83 85 86 84 83 86 85 84 87 84 88 90 88 88 88 90 93 97 92 88 93 93 94 93 94 94 94 96
87 87 86 88 85 82 89 91 90 88 82 81 83 86 93 86 87 92 91 88 92 91 90 90 90 88 90 89 87 89 91 92 97 96 93 94 94 93 94 96 88 84 89
96 95 92 94 91 94 92 90 91 91 87 86 83 89 92 91 86 91 92 92 92 92 89 92 90 92 93 94 93 91 91 90 94 94 93 92 94 96 93 93 93 92 82
88 97 96 99 97 98 95 93 93 94 93 92 92 92 93 89 82 85 90 92 90 88 87 88 85 86 92 95 94 94 95 93 93 95 92 93 93 93 96 97 96 95 96
84 86 91 99 94 98 95 95 95 94 95 94 93 92 92 91 86 88 91 94 95 90 86 86 84 74 76 78 93 94 92 94 94 93 93 93 93 93 97 99 97 98 97
84 83 78 88 96 92 88 91 82 93 94 92 92 94 94 86 66 68 79 96 95 95 90 87 86 80 80 75 76 83 87 96 95 94 95 96 96 96 95 96 95 97 97
76 74 74 74 80 83 80 82 85 86 91 93 91 89 88 88 67 67 71 93 93 91 94 86 86 85 79 84 76 78 84 84 94 96 96 96 96 97 98 96 96 96 98
81 78 78 76 76 76 79 83 87 86 87 86 88 81 81 70 66 70 70 81 83 84 85 80 80 79 75 77 80 82 86 90 94 95 96 96 96 96 97 98 98 96 92
86 84 78 78 76 78 80 90 90 90 85 86 84 90 86 83 65 68 72 75 82 89 79 74 70 71 66 71 71 73 84 88 78 77 80 80 82 80 89 86 95 95 95
84 88 89 83 84 84 86 91 94 91 88 83 81 93 83 88 70 66 72 80 95 94 90 86 64 66 64 65 73 79 89 92 90 86 86 82 82 83 83 89 93 93 95
76 79 83 89 92 93 92 90 96 95 89 97 92 95 96 90 89 67 71 93 99 96 92 91 83 65 64 65 68 79 80 86 86 87 86 86 84 85 86 87 89 93 92
75 75 77 81 63 70 87 90 89 94 96 97 93 92 92 94 76 71 66 79 83 96 99 96 88 68 70 66 71 65 68 79 85 86 87 88 90 89 88 88 87 88 85
74 65 68 68 62 66 75 83 90 91 96 88 86 97 95 89 90 80 70 72 78 94 91 81 75 77 79 90 69 73 82 84 86 89 92 93 92 88 83 82 80 81 78
63 53 63 62 59 59 57 63 80 95 94 82 89 97 97 94 94 97 93 94 78 88 96 94 94 89 91 92 93 92 90 90 88 91 92 91 87 84 84 83 84 82 82
46 47 56 62 64 65 65 79 75 96 78 89 96 97 98 98 94 76 81 95 95 90 96 90 93 97 94 93 92 92 92 91 90 88 90 87 85 83 81 77 79 80 83
47 50 57 63 68 74 83 92 72 83 70 66 69 93 94 77 66 64 64 66 72 77 90 98 99 100 97 96 95 94 93 93 88 84 86 85 82 79 75 69 72 79 78
53 57 68 67 75 86 90 88 98 87 77 73 63 63 61 77 69 67 66 70 71 79 94 99 100 100 96 90 91 93 95 94 89 85 89 90 82 76 77 74 77 76 74
85 85 88 95 97 96 96 97 98 99 99 100 78 78 65 74 70 68 66 73 94 88 91 97 99 96 88 88 90 92 92 92 92 87 93 95 96 86 87 83 80 84 78
82 95 95 97 97 97 98 99 98 99 98 98 95 94 94 71 72 74 80 97 99 99 93 93 99 96 97 95 100 99 100 99 98 100 99 98 100 95 94 89 89 87 81
93 95 93 95 97 97 96 96 97 98 97 94 97 97 98 95 100 100 100 100 100 100 100 98 98 97 100 99 100 100 100 100 98 98 100 100 100 99 99 96 94 91 83
95 94 93 92 94 94 95 95 97 97 95 96 99 100 97 97 100 100 100 100 100 100 100 98 100 100 100 100 97 100 100 100 98 100 100 99 100 100 98 97 93 88 84
88 88 91 88 88 95 95 93 96 95 92 97 100 98 100 100 100 100 100 100 100 100 100 100 100 100 100 100 100 100 100 100 100 100 100 100 100 100 100 99 99 99 95
84 89 89 89 86 97 97 96 97 97 98 99 98 99 100 100 100 100 100 100 99 100 100 100 100 99 99 100 100 99 100 100 100 100 100 100 100 100 100 100 100 100 100
87 91 89 93 96 97 97 98 99 99 98 100 100 100 100 100 100 100 100 100 100 100 100 100 100 100 99 100 100 100 99 100 100 100 100 100 100 99 100 100 100 100 100
91 94 92 94 94 97 97 97 98 99 99 100 100 100 100 100 100 100 100 100 100 100 100 99 100 100 100 100 100 100 99 100 100 100 100 100 100 100 100 100 100 100 100
89 90 91 95 96 97 97 98 100 100 100 100 100 100 100 100 100 100 100 100 99 99 99 100 100 99 99 97 98 99 100 100 100 100 100 100 100 100 100 100 100 100 98
Wind_Speed
5 5 5 4 4 4 4 4 5 6 7 8 7 8 11 11 11 10 11 12 12 12 12 13 16 14 10 10 9 8 8 8 8 8 9 5 5 9 9 7 11 11 12
6 5 5 5 4 5 5 5 5 7 8 7 7 8 8 10 10 11 11 11 12 13 13 13 15 12 15 13 10 12 11 10 9 12 5 6 5 11 8 10 9 10 11
3 4 5 5 4 4 4 4 5 6 7 7 8 9 8 6 10 10 10 11 10 10 13 13 14 14 14 13 13 12 11 10 10 8 8 6 3 8 6 9 10 10 10
5 4 5 5 5 3 3 4 5 5 6 7 8 8 7 7 9 11 11 11 11 11 12 13 13 14 14 14 13 13 12 12 12 11 10 9 6 7 6 5 7 9 9
5 5 5 5 7 4 3 3 4 5 4 5 7 9 8 5 6 7 10 9 10 11 12 12 14 20 24 21 11 14 15 13 11 12 12 8 10 9 8 5 0 6 12
6 5 5 7 7 5 5 3 5 4 5 5 7 6 6 6 17 18 13 7 7 9 12 12 12 19 18 23 24 26 24 16 14 11 10 13 13 11 7 5 4 4 3
7 6 6 6 7 6 6 5 4 4 4 6 6 7 9 4 17 16 18 6 7 10 8 12 12 11 16 12 18 21 22 27 17 11 12 14 12 15 11 8 12 9 6
7 6 6 6 6 5 5 5 4 3 4 4 6 8 8 8 16 17 15 8 9 11 11 12 13 15 19 17 14 13 13 13 15 11 13 13 15 16 13 10 8 5 7
6 6 5 5 5 5 5 5 5 4 4 6 6 6 8 8 15 15 12 7 8 9 11 13 13 14 26 26 15 15 14 14 16 24 24 26 27 31 27 12 12 7 6
7 5 5 5 5 5 4 4 4 4 5 4 6 5 10 8 13 15 11 5 6 6 6 9 24 19 26 26 14 13 14 14 14 15 15 18 20 21 27 17 13 11 5
8 7 6 5 4 4 4 3 4 5 5 3 4 4 4 7 8 15 15 4 1 4 5 6 7 23 24 25 22 13 14 9 11 11 11 12 14 14 13 13 13 10 11
7 7 6 7 5 5 6 4 5 5 5 3 3 4 4 4 12 13 15 15 12 5 3 3 6 19 21 23 16 23 20 11 8 9 10 11 11 11 11 10 11 9 9
7 6 6 7 6 5 5 5 4 4 3 3 3 2 4 5 5 14 16 15 15 6 6 12 15 17 17 12 21 20 13 9 8 9 10 10 9 8 10 10 11 9 10
8 7 7 8 6 4 4 4 4 3 2 3 2 2 3 4 4 3 5 5 12 9 7 7 7 10 8 8 8 10 8 8 8 8 8 6 7 9 10 9 9 10 7
9 8 7 6 6 5 4 3 4 1 4 3 2 2 1 4 2 7 6 2 3 6 3 6 6 5 7 7 7 8 8 7 8 7 8 8 9 9 9 9 9 7 8
9 7 7 6 5 5 4 2 8 8 9 7 5 3 3 5 11 12 12 12 12 12 5 5 5 4 6 6 7 7 7 8 7 7 7 8 8 9 9 8 9 9 9
9 8 6 6 6 5 5 5 5 5 9 8 7 7 8 10 12 12 10 12 12 9 6 4 3 4 5 6 6 6 6 7 7 6 6 7 7 7 9 9 9 9 8
7 8 6 4 4 4 4 4 4 4 3 1 6 6 7 10 11 11 10 9 4 6 5 4 3 4 5 5 6 6 6 6 6 6 5 5 5 6 7 8 8 7 8
8 5 5 4 3 4 4 4 4 3 3 3 1 5 6 10 10 11 12 4 2 3 4 4 2 3 3 4 3 4 3 4 4 3 4 4 4 4 5 6 6 8 8
6 9 6 5 4 4 4 4 4 4 5 3 2 2 1 3 3 2 3 2 3 2 2 2 2 2 2 2 3 3 3 4 4 4 3 3 3 3 3 4 5 6 6
6 6 7 5 4 4 4 4 4 4 4 3 2 2 3 4 3 2 2 2 2 1 2 2 2 2 2 2 3 3 3 3 3 3 3 3 3 3 4 4 5 6 6
6 6 6 5 4 4 4 4 4 5 5 4 2 2 5 3 3 3 2 2 0 1 1 1 2 2 2 1 2 2 2 3 3 3 3 3 3 3 3 3 3 3 5
6 6 6 5 4 5 4 4 4 4 4 4 4 3 2 2 2 2 3 1 1 2 3 1 2 3 3 2 2 3 2 3 3 0 2 3 3 3 3 2 3 3 3
7 6 6 5 4 4 4 4 3 5 5 4 4 3 4 3 3 3 2 1 2 3 2 2 2 3 4 3 3 3 3 3 1 1 1 0 2 4 3 2 3 3 3
7 6 6 6 6 5 5 4 4 4 4 4 4 3 3 3 3 2 1 1 1 2 3 3 3 4 5 7 5 6 5 2 1 1 1 1 2 3 3 2 2 3 2
6 6 6 5 5 5 5 5 4 5 5 4 3 3 3 3 3 2 2 1 1 2 4 3 4 7 8 6 6 5 3 3 2 2 1 1 3 3 2 3 4 2 4
Wind_Direction
104 106 95 67 47 45 40 24 7 359 359 6 8 3 25 19 13 10 7 5 2 5 5 359 1 352 356 354 352 344 334 325 296 292 278 2 8 353 356 44 64 71 52
136 134 117 95 56 48 44 35 17 15 11 7 5 14 18 25 14 12 8 6 5 4 1 2 6 357 2 357 358 5 355 346 328 305 357 346 21 349 343 39 55 62 64
142 132 122 121 101 51 40 42 28 11 11 6 12 17 12 23 22 14 6 2 5 2 7 7 10 2 7 1 1 7 6 2 354 347 357 348 342 9 337 47 36 43 53
165 148 136 135 138 126 59 45 41 17 7 360 9 9 3 17 36 21 9 4 5 11 11 8 14 15 11 8 2 8 13 21 8 9 8 357 343 315 2 1 42 45 40
162 176 169 155 150 141 113 50 33 22 0 2 10 6 357 17 33 32 8 353 359 8 13 10 10 25 22 21 15 10 18 29 18 13 10 357 357 342 354 349 55 75 44
158 152 133 144 150 151 144 132 73 28 2 15 12 1 349 29 39 35 28 353 349 4 12 8 13 17 19 17 27 28 30 29 23 19 6 4 352 356 351 18 19 42 50
134 134 127 121 131 151 144 126 97 57 20 20 13 8 4 10 37 35 30 0 8 11 14 15 15 15 19 13 15 26 26 29 27 22 21 10 360 351 346 6 42 56 57
129 130 128 126 122 125 128 133 117 76 42 35 21 14 9 13 46 34 30 17 22 20 16 33 22 19 22 19 11 23 25 21 24 22 25 20 17 5 359 18 21 57 62
135 138 140 134 131 130 127 141 136 110 72 51 35 7 10 354 41 42 27 27 24 20 19 20 38 28 30 28 21 16 18 17 14 25 28 28 26 27 28 25 22 21 41
149 152 140 133 135 125 128 120 138 121 93 66 51 19 12 356 10 34 42 24 18 14 8 19 35 42 36 36 30 23 20 4 3 9 15 18 17 18 23 31 22 30 21
146 143 136 119 122 127 103 101 109 123 97 70 38 343 338 355 346 26 37 38 20 26 31 21 31 36 40 39 38 36 33 8 12 16 17 16 17 17 14 17 24 27 30
150 151 147 131 129 119 110 99 101 107 102 62 29 1 349 344 11 27 37 54 49 46 8 13 21 39 34 38 38 36 31 20 21 25 27 26 20 16 8 7 9 24 36
152 149 146 136 129 139 126 119 108 106 94 91 63 4 335 342 358 38 40 48 48 30 31 40 41 36 32 21 33 29 23 25 26 29 24 20 11 6 8 15 17 17 29
155 144 140 132 133 127 123 121 119 112 93 81 55 9 326 335 350 0 44 34 41 39 18 25 21 31 23 14 6 18 15 17 22 20 19 13 9 16 21 14 15 7 20
153 150 150 151 146 136 132 146 135 141 133 148 184 183 3 335 329 49 45 74 71 45 22 33 25 3 16 13 9 10 8 13 18 13 12 14 19 18 21 15 15 12 26
153 156 159 152 152 149 140 108 137 149 142 114 132 174 280 3 52 47 36 45 54 50 44 33 14 2 20 14 7 358 5 3 17 16 15 14 16 17 14 15 17 16 17
155 154 153 154 155 153 156 156 159 160 142 100 57 43 27 70 58 50 51 49 58 60 58 23 15 1 21 15 7 6 357 356 1 23 18 13 13 15 14 14 12 10 10
131 136 143 143 140 148 157 159 150 158 142 3 31 39 50 70 61 52 54 59 35 38 52 44 14 20 26 19 9 5 359 358 10 21 19 13 360 17 14 15 11 6 359
137 133 133 125 125 133 131 130 153 144 137 133 48 27 9 71 67 65 68 78 75 38 39 41 22 23 15 15 354 343 345 344 348 354 13 14 349 12 17 13 1 355 355
122 134 132 132 130 118 126 129 127 135 136 136 131 186 316 58 57 21 33 64 64 41 18 24 1 13 2 0 346 342 345 354 358 4 352 354 347 358 7 4 1 357 357
131 138 135 124 134 143 144 148 145 135 140 142 170 225 164 129 149 136 122 82 92 54 8 354 335 339 336 8 354 350 356 338 356 360 351 341 355 3 348 348 359 354 350
138 140 144 146 141 130 134 137 141 144 147 141 140 94 103 101 123 127 108 103 274 322 318 333 348 336 333 343 322 333 335 328 326 353 345 340 348 356 345 343 346 331 341
136 138 139 136 133 128 124 130 133 135 139 139 135 122 110 133 130 118 122 176 346 347 339 11 327 325 323 323 299 281 273 299 297 162 347 341 343 356 354 332 330 330 350
141 139 141 136 132 132 133 136 136 132 132 134 130 140 142 145 142 144 147 295 340 319 305 322 311 311 314 304 291 287 270 279 276 285 179 13 344 355 349 331 327 314 314
139 133 137 147 149 148 140 144 137 126 131 142 145 140 143 136 137 144 204 282 307 336 321 322 317 309 316 311 299 308 308 22 84 205 182 168 62 17 335 318 319 312 317
135 141 142 135 137 147 145 146 146 141 148 157 152 158 154 156 158 176 212 244 335 335 332 325 337 348 343 345 323 320 21 348 359 33 65 98 58 0 353 340 351 327 326